Hlavní strana
METAR-TAF:

METAR-TAF

Letiště :

Lincolnton-Lincoln County Regional Airport

Lincolnton, Severní Karolína, Spojené státy americké

zeměpisná šířka: 35-28-59N, zeměpisná délka: 081-09-41W, výška: 267 m

Aktuální stav počasí

Zpráva byla vytvořena před 7 minutami, v 18:55 UTC
Severovýchodní vítr 9 kt
Teplota 11°C
Vlhkost vzduchu 30%
Tlak 1020 hPa
Viditelnost: 16.1 km
Jasno

METAR: KIPJ 151855Z AUTO 04009KT 10SM CLR 11/M06 A3012 RMK AO2 T01051062

Čas: 14:02 (19:02 UTC)


TAF: chybějící

Stav a předpovědi počasí z více než 4 000 letišť (zprávy METAR a TAF).

Červené a žluté tečky na mapě představují dostupné meteorologické stanice.

Když kurzor umístíte na tečku, zobrazí se název stanice.

Pak kliknutím zobrazíte stav a předpověď počasí.

Chcete-li změnit mapu, kliknutím na zelené tlačítko se znaménkem +mapu přiblížíte, kliknutím na zelené tlačítko se znaménkem – mapu oddálíte a kliknutím na zelené šipky přejdete na sousední mapy.


METAR-TAF: